Weather Roundup
Issued by NWS Chicago, IL

Home | Current Version | Previous Version | Graphics & Text | Print | Product List | Glossary On
Versions: 1 2 3 4 5 6 7 8 9 10 11 12 13 14 15 16 17 18 19 20 21 22 23 24 25 26 27 28 29 30 31 32 33 34 35 36 37 38 39 40 41 42 43 44 45 46 47 48 49 50
000
NZUS59 KLOT 280806
HRRLOT

CHICAGO AREA WEATHER ROUNDUP
NATIONAL WEATHER SERVICE CHICAGO/ROMEOVILLE IL
300 AM CDT MON JUL 28 2014

NOTE: "FAIR" INDICATES FEW OR NO CLOUDS BELOW 12,000 FEET WITH NO
SIGNIFICANT WEATHER AND/OR OBSTRUCTIONS TO VISIBILITY.

* THESE STATIONS ARE NOT UNDER NWS QUALITY CONTROL. THEY ALSO MAY NOT
  REPORT WEATHER SUCH AS PRECIPITATION OR FOG.

ILZ005-006-012>014-019>023-280900-
NORTHEAST ILLINOIS

CITY           SKY/WX    TMP DP  RH WIND       PRES   REMARKS
OHARE          PTCLDY    63  50  62 N13       29.94R
MIDWAY         PTCLDY    66  51  58 N20G25    29.93R
AURORA         CLEAR     60  52  74 N10       29.97R
LANSING*       CLOUDY    64  51  63 N14G20    29.92S
JOLIET*        CLEAR     64  52  65 N9        29.96R
WAUKEGAN       CLEAR     58  52  80 NW6       29.95R
DUPAGE AIRPORT CLEAR     61  52  72 N12       29.95R
WHEELING       CLEAR     62  52  69 N8G18     29.95S
KANKAKEE*      PTCLDY    62  55  79 NW5       29.94R
MORRIS*        CLEAR     62  55  77 N3        29.96R
LEWIS AIRPORT* CLEAR     63  51  66 N13       29.95R
NORTHERLY IS     N/A     64  52  64 N17         N/A
$$

WIZ051-052-058>065-066-070>072-280900-
SOUTHEAST WISCONSIN

CITY           SKY/WX    TMP DP  RH WIND       PRES   REMARKS
MILWAUKEE      PTCLDY    59  50  72 NW12      29.96R
KENOSHA*       CLEAR     58  52  80 NW6       29.96R
RACINE*        CLEAR     60  50  69 N12       29.97R
BURLINGTON     PTCLDY    54  52  94 NW7       29.98R
WAUKESHA       CLEAR     55  46  71 NW8       29.99R
WEST BEND      CLEAR     54  46  76 NW8       29.99R
$$

INZ001>003-010>013-019-020-280900-
NORTHWEST INDIANA

CITY           SKY/WX    TMP DP  RH WIND       PRES   REMARKS
GARY*          CLOUDY    65  53  65 N18G28    29.92S
MICHIGAN CITY* NOT AVBL
RENSSELAER*    NOT AVBL
VALPARAISO     MOCLDY    62  54  74 N15G21    29.90R
$$

LMZ740>746-280900-
SOUTHERN LAKE MICHIGAN

STATION/POSITION TIME  SKY/WX   TEMP WIND        PRES    VSBY
                                AIR  DIR/SP/G
                 (UTC)          (F)  (DEG/KT/KT) (MB)    (MI)
HARRISON CRIB    0800            64  340/ 29/ 36   N/A
BURNHAM HARBOR   0800            64  350/ 15/ 23   N/A
CALUMET HARBOR   0800            64  340/ 15/ 25 1012.1S
BURNS HARBOR     NOT AVBL
MICHIGAN CITY    0800            63  340/ 29/ 35   N/A
$$

ABBREVIATIONS USED IN REMARKS
   TC - TEMPERATURE IN CELSIUS
  WCI - WIND CHILL INDEX
   HX - HEAT INDEX
  VSB - VISIBILITY
$$


USA.gov is the U.S. government's official web portal to all federal, state and local government web resources and services.